Regional Weather Roundup
Issued by NWS

Home | Current Version | Previous Version | Text Only | Print | Product List | Glossary Off
Versions: 1 2 3 4 5 6 7 8 9 10 11 12 13 14 15 16 17 18 19 20 21 22 23 24 25 26 27 28 29 30 31 32 33 34 35 36 37 38 39 40 41 42 43 44 45 46 47 48 49 50

000
ASUS43 KBIS 041702
RWRND

NORTH DAKOTA REGIONAL WEATHER ROUNDUP
NATIONAL WEATHER SERVICE BISMARCK ND
1200 PM CDT FRI SEP 04 2015

NOTE: "FAIR" INDICATES FEW OR NO CLOUDS BELOW 12,000 FEET WITH NO
SIGNIFICANT WEATHER AND/OR OBSTRUCTIONS TO VISIBILITY.


NDZ001>003-009>011-017-041800-
NORTHWEST NORTH DAKOTA

CITY           SKY/WX    TMP DP  RH WIND       PRES   REMARKS
WILLISTON      CLOUDY    66  52  60 N21G28    29.87F
MINOT          CLOUDY    71  62  73 N15       29.80F
$$

NDZ018>021-031>035-040>046-041800-
SOUTHWEST NORTH DAKOTA

CITY           SKY/WX    TMP DP  RH WIND       PRES   REMARKS
BISMARCK       CLOUDY    76  71  85 SE8       29.80R
DICKINSON      CLOUDY    69  63  81 N9        29.82F
GARRISON         N/A     70  61  73 NE12      29.80F
HETTINGER ARPT MOSUNNY   78  61  55 NW13      29.82R
$$

NDZ004>008-012>016-024-026-027-054-041800-
NORTHEAST NORTH DAKOTA

CITY           SKY/WX    TMP DP  RH WIND       PRES   REMARKS
GRAND FORKS    CLOUDY    75  73  93 SE5       29.77R
GRND FRKS AFB  CLOUDY    76  72  86 SE6       29.78S
DEVILS LAKE    CLOUDY    77  66  69 SE8       29.78R
$$

NDZ022-023-025-028>030-036>039-047>053-041800-
SOUTHEAST NORTH DAKOTA

CITY           SKY/WX    TMP DP  RH WIND       PRES   REMARKS
FARGO          CLOUDY    83  71  67 S14       29.79R
JAMESTOWN      TSTM      73  66  78 W9        29.78R
$$




USA.gov is the U.S. government's official web portal to all federal, state and local government web resources and services.